Showing default

OPS 2222, 3334

Orbit data source: Space-Track

OPS 2222, 3334 is an American payload satellite in GEO that was launched on Tue, 06 Aug 1968 UTC via an ATLAS SLV-3A AGENA D launch vehicle from the Air Force Eastern Test Range (AFETR). Payload-class satellites include a variety of spacecraft equipped with specific instruments for various scientific and technological missions. These include communications satellites like Starlink; space stations such as the ISS; scientific satellites like the Hubble; Earth observation satellites from companies like Planet Labs, Umbra, and HawkEye 360; GPS; miniature CubeSats for education and research; and military/defense satellites.

Not visible in the next 10 days
Identifier
3334, 1968-063A
Orbit
GEO
Last TLE update
12 hours ago
Origin
Manufacturer
LMSC?
Mission
Non-operational Defense Sigint
Bus & Motor
CANYON, Unknown motor
Mass
~240 kg wet, ~200 kg dry
Launch date (UTC)
1968-08-06 (57 years ago)
Launch vehicle
ATLAS SLV-3A AGENA D
Launch site
Air Force Eastern Test Range (AFETR)
Object type
Payload
Rocket body
Debris
Shape & HBR
Cyl, 1.7 m
Radar Cross Section
2.639 m²

Expand to show TLE details & history

TLE from 12 hours ago
0 OPS 2222
1 03334U 68063A   25188.86274962  .00000067  00000-0  00000-0 0  9997
2 03334   6.8023 286.2241 0917894 221.5571 154.7951  0.99249841 22710
Epoch: 2025-07-07T20:42Z
TLE epoch observation values (Epoch: 2025-07-07T20:42:21.567Z)
Latitude
2.34209°
Longitude
69.78661°
Altitude
39,662.085 km
Speed
2.815 km/s
True Right ascension
20h 25m 46s
True Declination
2° 20' 24"
Sunlit
Object was in daylight at epoch
Visualization orbit readout
Latitude
-0.94655°
Longitude
-122.27726°
Altitude
32,712.81 km
Speed
3.317 km/s
Apparent Right ascension
07h 44m 41s
Apparent Declination
-6° 08' 38"
Sunlit
Object is in daylight
Visualization observer readout
Local Sidereal Time
20:42:35
Azimuth
24.887° NE
Elevation
-53.809°
Doppler factor
1
Orbital elements
Apogee altitude
39,973.487 km
Perigee altitude
32,179.699 km
Semi-major axis
42,454.73 km
Eccentricity
0.09179
Inclination
6.8023°
RAAN
286.2241°
Arg. of periapsis
221.5571°
True anomaly
Unknown
Mean anomaly
154.7951°
Eccentric anomaly
Unknown
Mean motion
0.24812 °/min
Orbital period
1,450.94 mins
BSTAR
0
Loading historical data...
3334 neighbors
Loading maneuver chart data...
Loading SW <> Apogee altitude chart data...
Loading historical data...
Loading historical data...
Loading historical data...
Loading historical data...
Loading historical data...
Loading historical data...
Loading historical data...
Other satellites on launch #63 in the year 1968 (1968-08-06 UTC)

OPS 2222 Visibility

Observer location: undefined°, undefined°

OPS 2222 is likely not visible in the next few days
Span
Click to sort rows by Start time (UTC) header in descending order
Start Az.
Max El. time (UTC)
Max El. Az.
Max El.
End time (UTC)
End Az.
|